Search for airport 
image banner adimage banner ad
image banner ad

LEVITR - Villanueva del Trabuco

Located in , Spain

ICAO - , IATA -

Data provided by Airmate  

General information

Coordinates: N37°3'49" W4°19'49"
Elevation is 2416 feet MSL.
 
Rated:
View ratings: [VIEW]


View others Airports in Málaga

Operational data

Open for public use
Current time UTC:
Current local time:
Weather at : LEMG - Malaga/Costa Del Sol ( 46 km )
METAR: LEMG 040000Z 14006KT 100V180 CAVOK 26/23 Q1012 NOSIG
TAF: TAF LEMG 032300Z 0400/0424 12009KT CAVOK TX36/0415Z TN25/0405Z PROB40 TEMPO 0400/0408 BKN010
View NOTAMs / SUP AIP / TFR affecting this airport [VIEW]
Communications frequencies: [VIEW]

Runways:

RWY identifierQFULength (ft)Width (ft)SurfaceLDA (ft)
219680DIRT
039680DIRT

Airport contact information

Address: Spain

Satellite view of LEVITR